When you browse on this site, cookies collect data to enhance your experience and personalize the content and advertising you see.
Visit our Privacy Policy to learn more. By continuing to use the site, you agree to this use of cookies and data.
  • In Austria
  • List of Countries
  • For 7 days
  • Water Temperature
  • Weather Map
  • News
  • Weather Widgets
  • user-avatar
    Login

    Hourly Weather Calnali

    Today, 14 November, Thursday

    Time Temperature Precipitation Wind Pressure Humidity
    00:00 +9°C° 0 mm 0 mps 654 mmHg 91%
    01:00 +9°C° 0 mm 0 mps 654 mmHg 92%
    02:00 +9°C° 0 mm 0 mps 654 mmHg 93%
    03:00 +9°C° 0 mm 0 mps 654 mmHg 92%
    04:00 +10°C° 0 mm 1 mps 654 mmHg 91%
    05:00 +10°C° 0 mm 1 mps 654 mmHg 89%
    06:00 +12°C° 0 mm 1 mps 655 mmHg 83%
    07:00 +13°C° 0 mm 0 mps 656 mmHg 76%
    08:00 +15°C° 0 mm 0 mps 657 mmHg 70%
    09:00 +18°C° 0 mm 1 mps 657 mmHg 69%
    10:00 +19°C° 0 mm 1 mps 657 mmHg 68%
    11:00 +19°C° 0 mm 2 mps 657 mmHg 67%
    12:00 +19°C° 0 mm 2 mps 656 mmHg 70%
    13:00 +19°C° 0 mm 2 mps 656 mmHg 72%
    14:00 +19°C° 0 mm 2 mps 656 mmHg 75%
    15:00 +17°C° 0 mm 2 mps 656 mmHg 81%
    16:00 +16°C° 0 mm 1 mps 656 mmHg 87%
    17:00 +15°C° 0 mm 1 mps 656 mmHg 94%
    18:00 +14°C° 0.1 mm 1 mps 656 mmHg 95%
    19:00 +14°C° 0.1 mm 1 mps 657 mmHg 96%
    20:00 +13°C° 0.1 mm 0 mps 658 mmHg 97%
    21:00 +14°C° 0.5 mm 1 mps 658 mmHg 97%
    22:00 +13°C° 0.5 mm 1 mps 658 mmHg 98%
    23:00 +13°C° 0.5 mm 1 mps 658 mmHg 98%

    Tomorrow, 15 November, Friday

    Time Temperature Precipitation Wind Pressure Humidity
    00:00 +12°C° 0.4 mm 1 mps 658 mmHg 98%
    01:00 +12°C° 0.4 mm 1 mps 658 mmHg 98%
    02:00 +11°C° 0.4 mm 1 mps 657 mmHg 98%
    03:00 +10°C° 0.1 mm 1 mps 658 mmHg 97%
    04:00 +10°C° 0.1 mm 1 mps 658 mmHg 97%
    05:00 +10°C° 0.1 mm 1 mps 658 mmHg 96%
    06:00 +10°C° 0.1 mm 1 mps 658 mmHg 95%
    07:00 +10°C° 0.1 mm 1 mps 659 mmHg 94%
    08:00 +9°C° 0.1 mm 1 mps 659 mmHg 93%
    09:00 +10°C° 0 mm 1 mps 659 mmHg 89%
    10:00 +11°C° 0 mm 1 mps 660 mmHg 84%
    11:00 +12°C° 0 mm 1 mps 660 mmHg 80%
    12:00 +12°C° 0 mm 1 mps 659 mmHg 80%
    13:00 +12°C° 0 mm 1 mps 658 mmHg 81%
    14:00 +12°C° 0 mm 1 mps 658 mmHg 81%
    15:00 +11°C° 0 mm 1 mps 658 mmHg 85%
    16:00 +11°C° 0 mm 1 mps 658 mmHg 89%
    17:00 +9°C° 0 mm 0 mps 658 mmHg 93%
    18:00 +9°C° 0 mm 0 mps 658 mmHg 93%
    19:00 +9°C° 0 mm 0 mps 658 mmHg 92%
    20:00 +9°C° 0 mm 0 mps 659 mmHg 91%
    21:00 +9°C° 0 mm 0 mps 658 mmHg 91%
    22:00 +8°C° 0 mm 0 mps 658 mmHg 92%
    23:00 +8°C° 0 mm 0 mps 658 mmHg 92%

    Day after tomorrow, 16 November, Saturday

    Time Temperature Precipitation Wind Pressure Humidity
    00:00 +8°C° 0 mm 0 mps 657 mmHg 91%
    01:00 +8°C° 0 mm 0 mps 657 mmHg 91%
    02:00 +8°C° 0 mm 0 mps 656 mmHg 91%
    03:00 +8°C° 0 mm 0 mps 656 mmHg 91%
    04:00 +7°C° 0 mm 0 mps 656 mmHg 91%
    05:00 +7°C° 0 mm 0 mps 656 mmHg 91%
    06:00 +9°C° 0 mm 0 mps 657 mmHg 85%
    07:00 +10°C° 0 mm 0 mps 657 mmHg 80%
    08:00 +13°C° 0 mm 1 mps 658 mmHg 75%
    09:00 +14°C° 0 mm 1 mps 658 mmHg 74%
    10:00 +15°C° 0 mm 1 mps 658 mmHg 73%
    11:00 +16°C° 0 mm 2 mps 657 mmHg 71%
    12:00 +16°C° 0 mm 2 mps 657 mmHg 74%
    13:00 +16°C° 0 mm 2 mps 656 mmHg 76%
    14:00 +15°C° 0 mm 2 mps 655 mmHg 79%
    15:00 +15°C° 0 mm 1 mps 655 mmHg 84%
    16:00 +14°C° 0 mm 1 mps 655 mmHg 89%
    17:00 +13°C° 0 mm 1 mps 655 mmHg 94%
    18:00 +11°C° 0 mm 0 mps 655 mmHg 94%
    19:00 +11°C° 0 mm 0 mps 655 mmHg 95%
    20:00 +11°C° 0 mm 0 mps 655 mmHg 95%
    21:00 +10°C° 0 mm 0 mps 655 mmHg 95%
    22:00 +10°C° 0 mm 0 mps 655 mmHg 95%
    23:00 +10°C° 0 mm 0 mps 655 mmHg 95%

    17 November, Sunday

    Time Temperature Precipitation Wind Pressure Humidity
    00:00 +10°C° 0 mm 0 mps 654 mmHg 95%
    01:00 +10°C° 0 mm 0 mps 654 mmHg 94%
    02:00 +10°C° 0 mm 0 mps 653 mmHg 94%
    03:00 +10°C° 0 mm 0 mps 653 mmHg 94%
    04:00 +10°C° 0 mm 0 mps 653 mmHg 94%
    05:00 +10°C° 0 mm 0 mps 653 mmHg 94%
    06:00 +12°C° 0 mm 0 mps 654 mmHg 88%
    07:00 +14°C° 0 mm 0 mps 655 mmHg 82%
    08:00 +15°C° 0 mm 0 mps 656 mmHg 76%
    09:00 +19°C° 0 mm 1 mps 656 mmHg 73%
    10:00 +20°C° 0 mm 1 mps 655 mmHg 71%
    11:00 +20°C° 0 mm 2 mps 655 mmHg 68%
    12:00 +20°C° 0.2 mm 2 mps 655 mmHg 72%
    13:00 +20°C° 0.2 mm 2 mps 654 mmHg 76%
    14:00 +19°C° 0.2 mm 2 mps 653 mmHg 79%
    15:00 +19°C° 0.1 mm 1 mps 653 mmHg 85%
    16:00 +18°C° 0.1 mm 1 mps 653 mmHg 90%
    17:00 +16°C° 0.1 mm 1 mps 653 mmHg 95%
    18:00 +15°C° 0 mm 0 mps 654 mmHg 95%
    19:00 +14°C° 0 mm 0 mps 654 mmHg 95%
    20:00 +14°C° 0 mm 0 mps 654 mmHg 94%
    21:00 +13°C° 0 mm 0 mps 654 mmHg 93%
    22:00 +13°C° 0 mm 0 mps 654 mmHg 91%
    23:00 +13°C° 0 mm 0 mps 654 mmHg 90%

    18 November, Monday

    Time Temperature Precipitation Wind Pressure Humidity
    00:00 +12°C° 0 mm 0 mps 654 mmHg 90%
    01:00 +12°C° 0 mm 0 mps 653 mmHg 90%
    02:00 +12°C° 0 mm 0 mps 653 mmHg 91%
    03:00 +12°C° 0 mm 0 mps 653 mmHg 91%
    04:00 +12°C° 0 mm 0 mps 654 mmHg 91%
    05:00 +12°C° 0 mm 0 mps 654 mmHg 92%
    06:00 +14°C° 0 mm 0 mps 654 mmHg 86%
    07:00 +15°C° 0 mm 0 mps 655 mmHg 81%
    08:00 +16°C° 0 mm 0 mps 656 mmHg 76%
    09:00 +19°C° 0 mm 1 mps 655 mmHg 71%
    10:00 +21°C° 0 mm 1 mps 655 mmHg 67%
    11:00 +21°C° 0 mm 2 mps 655 mmHg 63%
    12:00 +20°C° 0 mm 2 mps 654 mmHg 65%
    13:00 +20°C° 0 mm 2 mps 654 mmHg 68%
    14:00 +20°C° 0 mm 2 mps 653 mmHg 70%
    15:00 +20°C° 0 mm 1 mps 653 mmHg 78%
    16:00 +18°C° 0 mm 1 mps 653 mmHg 87%
    17:00 +16°C° 0 mm 1 mps 653 mmHg 95%
    18:00 +15°C° 0 mm 1 mps 653 mmHg 95%
    19:00 +14°C° 0 mm 0 mps 653 mmHg 95%
    20:00 +14°C° 0 mm 0 mps 654 mmHg 95%
    21:00 +13°C° 0 mm 0 mps 654 mmHg 95%
    22:00 +13°C° 0 mm 0 mps 654 mmHg 96%
    23:00 +13°C° 0 mm 0 mps 653 mmHg 96%

    19 November, Tuesday

    Time Temperature Precipitation Wind Pressure Humidity
    00:00 +13°C° 0 mm 0 mps 654 mmHg 96%
    01:00 +13°C° 0 mm 0 mps 654 mmHg 96%
    02:00 +14°C° 0 mm 0 mps 654 mmHg 96%
    03:00 +14°C° 0.1 mm 0 mps 654 mmHg 96%
    04:00 +14°C° 0.1 mm 0 mps 654 mmHg 96%
    05:00 +14°C° 0.1 mm 0 mps 655 mmHg 97%
    06:00 +14°C° 0.1 mm 0 mps 655 mmHg 94%
    07:00 +15°C° 0.1 mm 0 mps 656 mmHg 92%
    08:00 +15°C° 0.1 mm 0 mps 656 mmHg 89%
    09:00 +18°C° 0 mm 1 mps 657 mmHg 83%
    10:00 +19°C° 0 mm 1 mps 657 mmHg 77%
    11:00 +21°C° 0 mm 1 mps 657 mmHg 71%
    12:00 +20°C° 0 mm 2 mps 656 mmHg 70%
    13:00 +20°C° 0 mm 2 mps 656 mmHg 70%
    14:00 +20°C° 0 mm 2 mps 655 mmHg 70%
    15:00 +18°C° 0.1 mm 2 mps 655 mmHg 78%
    16:00 +18°C° 0.1 mm 1 mps 655 mmHg 87%
    17:00 +15°C° 0.1 mm 1 mps 655 mmHg 96%
    18:00 +15°C° 0.1 mm 1 mps 656 mmHg 96%
    19:00 +14°C° 0.1 mm 0 mps 656 mmHg 96%
    20:00 +14°C° 0.1 mm 0 mps 656 mmHg 97%
    21:00 +13°C° 0.1 mm 0 mps 656 mmHg 96%
    22:00 +13°C° 0.1 mm 0 mps 656 mmHg 95%
    23:00 +13°C° 0.1 mm 0 mps 656 mmHg 94%
    Show more